Regional Weather Roundup
Issued by NWS Albany, NY

Home | Current Version | Previous Version | Graphics & Text | Print | Product List | Glossary Off
Versions: 1 2 3 4 5 6 7 8 9 10 11 12 13 14 15 16 17 18 19 20 21 22 23 24 25 26 27 28 29 30 31 32 33 34 35 36 37 38 39 40 41 42 43 44 45 46 47 48 49 50

000
ASUS41 KALY 041710
RWRALY

NEW YORK STATE HOURLY WEATHER ROUNDUP
NATIONAL WEATHER SERVICE ALBANY NY
100 PM EDT TUE AUG 04 2015

NOTE: "FAIR" INDICATES FEW OR NO CLOUDS BELOW 12,000 FEET WITH NO
SIGNIFICANT WEATHER AND/OR NO OBSTRUCTIONS TO VISIBILITY.

NYZ032-033-038>043-046>054-057>066-NYZ062>081-041800-
EAST


CITY           SKY/WX    TMP DP  RH WIND       PRES   REMARKS
ALBANY         PTSUNNY   81  66  60 NW7       29.82F
GLENS FALLS    MOSUNNY   81  60  48 W12       29.80F
POUGHKEEPSIE   SUNNY     88  64  44 SW12G18   29.81F
NEWBURGH       MOSUNNY   86  68  54 W14       29.86S
MONTGOMERY     MOSUNNY   86  68  54 S12       29.83F
WHITE PLAINS   MOSUNNY   86  62  44 NW12G18   29.84F
ISLIP          MOSUNNY   86  66  51 SW15G21   29.83F
NEW YORK CITY  MOSUNNY   88  63  43 W9G20     29.84F
CENTRAL PARK   SUNNY     87  64  46 VRB6      29.87F
$$

NYZ005>009-017-018-044>046-055-056-041800-
CENTRAL


CITY           SKY/WX    TMP DP  RH WIND       PRES   REMARKS
FULTON         CLOUDY    73  61  65 VRB7      29.88S
SYRACUSE       PTSUNNY   77  57  50 W13       29.88R
ROME           PTSUNNY   76  57  51 NW16G22   29.88R
ELMIRA         CLOUDY    76  58  53 W13G21    29.89S
BINGHAMTON     PTSUNNY   75  59  57 W12G22    29.90F
MONTICELLO     MOSUNNY   81  61  50 W9G17     29.89F
$$

NYZ026>034-041>043-041800-
NORTH


CITY           SKY/WX    TMP DP  RH WIND       PRES   REMARKS
WATERTOWN      SUNNY     74  57  55 SW10G20   29.86S
FORT DRUM      NOT AVBL
MASSENA        MOSUNNY   76  56  49 W15G23    29.82S
SARANAC LAKE   PTSUNNY   69  55  60 SW9G18    29.85F
PLATTSBURGH    LGT RAIN  74  59  59 W7        29.80R
$$

NYZ001>004-010>016-019>021-041800-
WEST


CITY           SKY/WX    TMP DP  RH WIND       PRES   REMARKS
NIAGARA FALLS  PTSUNNY   77  56  48 W13       29.88S
BUFFALO        MOSUNNY   76  52  43 SW14G25   29.89S
DUNKIRK        SUNNY     74  57  55 W12G22    29.93S
JAMESTOWN      MOSUNNY   72  52  49 W14G20    29.97S
WELLSVILLE     CLOUDY    66  57  72 VRB7      29.98S
ROCHESTER      PTSUNNY   75  58  55 VRB5      29.89S
PENN YAN       LGT RAIN  67  61  81 VRB6      29.92S
$$

             KEY
       WCI = WIND CHILL INDEX
       VSB = VISIBILITY
       HX  = HEAT INDEX
$$



USA.gov is the U.S. government's official web portal to all federal, state and local government web resources and services.